GFSGL_250_rhum_000.txt.gz
RH
32 34 31 29 31 36 30 23 27 35 40 94 81 84 79 57 93 90 99 100 97 90 99 100 100 100 92 99 100 100 100 90 91 88 73 79 72 47 52 61 41 33 20
34 31 32 32 32 32 27 18 22 23 36 82 100 89 79 92 64 94 92 100 100 100 100 100 100 91 100 100 100 100 100 82 85 98 100 68 72 77 66 40 42 26 18
35 33 34 38 32 26 24 13 23 37 39 98 100 100 100 100 100 73 74 82 100 100 100 100 100 100 100 100 100 100 94 88 100 89 95 91 79 94 64 79 71 20 13
37 37 40 36 28 22 17 14 68 56 70 88 72 95 100 100 100 91 77 93 100 100 100 100 100 100 100 100 100 100 94 85 83 94 100 98 91 66 84 86 50 26 11
36 38 39 30 22 18 12 42 58 54 44 47 35 43 100 100 100 100 100 100 100 100 100 100 100 99 99 100 100 91 96 98 100 100 100 97 70 67 87 59 40 18 9
36 38 32 23 18 15 10 10 12 13 29 28 32 41 61 93 100 100 100 100 100 100 100 100 100 100 100 100 95 90 100 100 100 99 78 84 100 68 61 24 18 12 6
35 29 23 21 18 14 10 10 12 14 21 38 18 24 48 51 57 86 100 100 100 100 100 100 100 100 100 100 100 100 99 89 74 67 92 100 100 80 22 16 15 9 6
31 24 21 20 16 13 11 12 13 14 15 14 16 21 24 30 58 62 73 98 100 100 100 100 100 100 99 100 100 100 88 84 95 85 63 51 41 22 17 18 15 8 5
24 21 20 18 14 13 13 14 16 16 15 16 20 18 27 37 60 80 94 97 89 100 95 99 100 100 100 100 94 98 100 75 51 40 24 27 27 20 17 17 12 7 5
21 18 18 16 14 14 17 17 16 15 17 31 30 34 33 31 40 44 64 86 99 99 88 79 75 67 74 79 79 83 53 46 34 23 23 26 24 22 14 12 9 6 4
18 18 17 15 17 18 18 17 15 15 36 61 31 26 33 39 41 40 53 55 46 34 32 34 50 52 73 68 52 52 43 33 25 24 26 23 20 12 11 10 7 5 5
17 16 15 16 16 18 17 17 19 21 36 56 45 41 43 36 58 53 69 66 55 42 28 28 50 52 45 38 37 31 26 27 29 29 24 20 11 8 8 8 6 6 5
16 16 16 16 18 18 19 21 21 21 33 27 28 46 80 84 64 52 52 55 38 36 51 49 51 43 37 35 30 30 33 38 38 26 14 9 8 7 7 6 6 7 7
16 16 17 18 20 22 24 23 21 26 34 36 56 64 66 65 54 57 54 58 50 51 50 42 40 34 36 49 47 46 46 36 25 12 9 7 7 6 6 5 6 8 11
18 19 20 21 24 26 25 24 27 33 29 35 40 51 54 57 63 62 55 62 60 51 43 46 46 48 58 56 53 50 38 23 10 10 8 8 6 6 6 5 6 10 20
20 23 24 26 25 24 23 27 32 29 28 34 42 47 61 70 71 71 99 53 69 49 48 49 53 55 50 51 46 34 20 14 11 10 9 8 6 6 5 6 8 16 33
27 28 29 29 24 23 23 25 22 25 34 46 64 79 99 100 74 57 42 45 47 46 49 50 53 49 41 36 22 14 15 14 12 10 10 8 9 8 6 6 11 29 36
31 30 29 26 26 28 29 30 39 46 57 72 74 76 62 37 34 37 44 44 48 53 50 45 42 39 30 19 18 16 14 14 14 13 13 12 13 10 7 7 13 39 50
31 28 28 28 31 34 34 31 35 54 60 55 53 41 35 36 40 45 50 50 46 44 41 40 36 24 19 18 16 16 15 15 15 14 15 15 16 13 9 10 18 46 60
33 28 29 30 30 34 48 40 44 43 42 38 43 54 48 45 51 50 47 42 41 39 33 26 27 25 21 19 20 18 16 15 15 15 16 17 15 16 11 12 20 60 61
30 30 30 40 42 44 40 42 42 45 51 52 48 48 47 51 44 42 40 34 28 26 28 26 24 21 20 21 22 21 19 17 16 17 19 19 16 17 14 12 23 63 65
42 44 46 46 46 45 43 46 56 60 56 51 49 52 47 42 40 33 26 26 29 27 25 23 24 24 24 25 23 22 20 19 18 17 17 16 16 17 17 13 28 66 66
54 52 49 51 51 57 66 71 64 57 53 50 50 45 40 36 30 28 28 31 29 26 26 26 27 26 23 22 22 21 20 19 19 18 17 15 15 18 20 16 19 60 70
56 59 64 68 75 69 66 63 60 52 50 49 42 36 32 30 29 34 33 29 29 31 33 33 32 29 24 21 21 22 22 20 20 22 20 18 16 15 20 18 16 45 64
62 69 75 73 65 66 66 60 53 53 46 37 34 30 32 34 41 38 35 34 36 38 38 38 34 31 28 25 21 20 21 21 22 24 24 22 20 17 18 18 17 31 55
64 70 71 71 64 57 56 56 48 40 36 29 28 30 32 33 34 35 39 40 39 40 41 40 37 34 31 27 25 22 21 22 22 24 24 24 26 23 18 21 20 20 53

GFSGL_250_rhum_003.txt.gz
RH
25 28 31 30 30 31 31 33 36 30 22 20 18 44 37 43 62 62 67 86 100 99 92 96 100 100 100 100 100 100 100 100 100 100 100 100 91 78 78 55 64 93 75
27 29 30 32 33 32 33 36 33 23 19 18 15 42 45 51 45 42 50 54 87 76 85 69 78 89 87 99 99 100 100 100 100 100 100 100 98 92 100 100 90 71 52
28 29 31 35 36 34 38 40 29 22 22 35 64 45 32 14 25 38 40 24 47 59 53 58 91 100 100 100 100 100 100 100 100 100 100 100 100 100 100 90 71 63 70
30 31 34 38 36 36 39 32 26 22 22 44 35 13 16 29 41 44 24 42 54 77 100 100 100 100 100 100 100 100 100 100 100 100 100 100 100 100 95 92 93 100 89
33 34 38 39 39 39 36 33 26 22 30 24 12 23 25 24 21 26 18 21 31 47 58 94 94 100 100 100 100 100 100 100 100 100 100 100 100 100 100 100 100 73 43
38 40 42 44 42 37 38 34 23 21 18 19 32 14 16 21 18 21 22 32 32 33 47 40 43 67 89 100 100 100 100 100 100 100 100 100 100 100 100 100 72 46 30
44 47 49 49 46 41 34 26 21 19 17 14 13 14 24 27 17 19 40 49 39 37 33 40 55 63 79 94 82 82 95 100 100 100 100 100 100 98 71 57 46 31 24
50 52 53 50 43 37 30 24 20 18 16 14 14 16 19 18 17 18 50 60 54 53 46 41 46 56 78 64 53 44 47 57 70 79 81 88 78 56 44 35 32 24 22
54 54 50 47 40 32 26 22 18 17 16 16 15 28 18 17 19 26 41 54 52 49 55 60 60 61 42 40 55 58 66 76 78 90 73 59 52 43 38 31 28 22 15
50 47 41 38 32 27 24 18 17 16 16 16 16 17 19 22 24 25 45 41 50 77 67 66 65 52 50 45 39 46 48 57 67 58 54 56 50 38 32 25 18 13 8
44 41 36 29 27 22 19 17 17 16 17 16 17 20 23 25 24 38 60 60 69 73 74 55 47 47 47 49 48 51 44 40 39 40 38 40 36 29 24 17 9 7 6
38 31 27 24 20 18 17 17 17 17 17 18 22 24 25 30 38 66 78 81 81 69 50 43 42 39 33 46 39 31 32 35 38 41 39 34 25 18 12 8 6 5 5
30 28 22 20 18 17 16 16 17 17 18 22 25 26 28 33 48 53 71 56 38 40 49 42 41 30 28 35 33 36 40 40 42 37 30 22 19 10 8 6 5 5 4
22 21 19 18 17 16 17 18 18 19 25 33 31 26 25 28 39 45 36 27 28 32 32 39 32 30 36 37 39 39 42 44 41 32 20 14 10 8 8 6 6 4 4
19 18 18 18 18 18 20 22 24 33 48 32 30 26 27 26 30 24 23 28 37 36 34 31 34 38 43 42 44 47 48 41 28 17 10 10 10 10 9 8 5 4 5
21 20 20 21 21 23 25 35 44 42 35 29 26 25 25 26 29 32 35 38 39 37 38 38 43 42 43 44 44 41 36 29 16 11 10 10 11 11 10 7 6 6 6
26 27 30 29 28 30 35 29 28 28 29 29 27 27 31 32 33 37 39 39 41 45 42 40 41 43 45 42 34 30 20 14 12 13 13 11 11 11 10 9 8 8 8
30 32 36 37 34 36 36 36 37 35 31 33 35 35 34 40 42 42 42 46 44 44 41 43 45 44 36 27 23 16 12 12 15 16 15 14 12 12 12 11 10 11 10
37 45 49 61 57 50 57 55 50 37 42 37 38 37 44 47 46 48 48 44 44 44 46 45 38 30 26 20 15 14 14 16 17 18 16 14 13 12 12 12 13 12 12
68 95 81 56 57 54 47 47 46 48 40 42 47 48 51 46 51 49 48 48 48 48 42 30 27 23 20 17 16 17 18 17 18 19 16 14 13 13 14 14 15 14 13
80 71 60 68 91 81 62 45 43 44 47 49 46 56 56 52 52 51 46 46 44 35 29 27 30 24 20 19 20 19 19 18 18 20 20 16 14 13 14 16 18 19 16
68 66 70 68 70 69 57 50 51 58 54 52 49 52 53 55 48 44 44 40 32 25 27 32 29 26 26 27 25 22 21 19 18 20 22 20 17 16 14 16 19 23 18
57 64 58 56 58 67 60 60 66 61 58 56 55 51 43 44 46 44 38 32 25 25 27 29 30 31 32 30 27 24 22 22 19 20 21 21 20 18 15 16 20 23 20
99 96 50 47 74 77 68 72 75 72 75 70 64 47 47 45 42 38 32 27 27 27 29 30 36 36 35 30 26 24 24 23 23 19 21 22 22 20 18 17 20 24 21
87 92 73 97 94 93 93 78 79 79 77 66 58 50 44 41 38 29 27 29 29 28 32 39 42 42 37 31 28 25 24 22 24 21 22 22 22 23 22 20 20 25 24
77 82 76 74 76 96 88 80 70 66 61 54 42 43 43 38 30 29 31 31 34 38 42 44 44 42 39 37 34 31 29 25 20 22 21 21 21 23 24 23 22 23 23

GFSGL_250_rhum_006.txt.gz
RH
23 24 25 26 26 26 29 33 34 34 34 30 30 26 23 22 32 40 33 16 13 17 16 15 16 23 24 34 65 98 96 100 91 100 100 100 94 100 100 100 100 100 100
23 25 26 26 27 28 31 36 37 35 35 36 38 28 22 23 20 14 16 18 19 18 15 14 19 34 58 66 100 91 36 50 77 100 100 100 100 100 100 100 100 100 100
26 28 28 29 30 31 33 36 38 37 36 38 37 29 22 19 17 17 17 13 15 18 15 14 17 26 23 28 36 42 64 98 100 100 100 100 100 100 100 100 100 100 100
29 31 31 31 32 33 35 38 38 39 41 42 43 34 23 18 16 14 14 15 16 16 16 17 27 32 34 38 41 48 62 70 86 100 100 100 100 100 91 100 100 99 98
30 31 32 32 34 36 39 40 40 43 41 45 44 31 22 18 16 15 15 19 24 19 20 23 24 40 46 52 59 69 79 77 70 74 86 100 79 80 98 100 100 100 100
30 31 32 33 36 39 41 43 43 45 46 46 39 28 38 23 16 16 16 17 20 19 25 24 27 39 47 53 60 66 72 67 60 39 39 39 61 65 90 90 100 100 100
29 30 32 34 38 41 42 41 44 46 46 36 28 34 20 24 18 17 24 18 19 28 33 28 30 46 62 64 68 76 71 62 49 46 48 55 68 60 74 86 100 100 96
28 31 33 36 39 40 38 39 43 44 40 30 24 27 24 18 19 26 19 18 37 39 29 37 43 61 66 75 68 60 54 41 37 32 37 47 62 83 85 92 73 62 69
32 34 36 38 40 40 41 41 38 48 35 29 20 18 18 20 21 18 19 36 38 27 30 37 54 63 69 63 46 48 41 43 37 30 29 49 58 51 44 46 48 44 43
34 36 37 39 40 40 40 38 41 39 34 23 19 17 21 30 17 17 36 49 39 34 33 33 37 42 41 40 36 37 34 35 30 35 38 40 43 40 38 33 32 28 24
36 38 39 39 39 41 39 42 40 33 26 21 18 19 22 17 23 42 56 56 50 32 28 33 36 42 35 37 35 33 35 37 38 43 45 41 40 39 35 31 25 22 19
39 39 39 40 40 39 40 36 31 24 21 19 18 18 18 20 37 45 67 55 35 34 30 31 33 36 36 35 37 39 41 40 40 39 38 36 33 29 25 21 20 14 8
38 40 41 42 39 36 34 31 22 20 20 20 20 20 24 45 53 64 45 34 33 31 30 29 34 34 37 42 44 43 44 42 42 40 39 34 25 22 19 14 10 8 7
34 36 39 38 32 29 23 21 21 21 23 23 24 30 46 49 42 32 33 40 35 30 34 37 34 40 44 48 45 43 43 44 39 33 30 24 18 15 10 8 8 8 7
25 26 26 24 22 21 23 23 24 24 24 28 33 34 41 39 42 33 30 34 34 36 34 32 39 45 49 47 44 43 41 36 30 22 19 16 13 10 7 9 10 8 7
23 23 23 23 24 27 37 33 28 26 31 36 36 36 38 35 34 37 39 38 41 39 36 40 47 48 48 43 39 37 36 29 25 22 16 12 10 10 11 12 10 8 7
31 31 29 30 32 39 32 31 29 32 40 50 66 66 58 51 43 44 43 45 44 41 42 47 45 44 43 40 38 32 25 22 21 16 13 11 12 12 14 11 10 8 7
37 38 37 35 36 54 43 33 39 54 65 56 79 87 60 54 55 52 47 46 45 45 41 40 40 42 42 38 31 21 18 17 15 13 12 13 14 15 14 12 10 9 7
37 37 40 76 56 54 81 81 80 79 98 88 82 73 67 66 60 53 51 52 47 48 48 49 44 40 35 28 20 17 15 14 15 17 16 15 15 14 14 12 11 10 9
37 41 38 50 69 94 89 88 84 72 96 68 60 50 45 51 60 56 52 52 61 53 52 45 37 34 26 21 18 17 18 18 18 18 16 16 14 14 14 12 11 10 11
77 100 100 100 100 100 100 100 98 64 68 74 70 58 49 51 61 67 59 62 57 54 44 37 34 27 22 21 19 22 22 20 17 16 15 15 14 14 14 13 11 11 13
100 100 100 100 98 94 76 74 80 77 73 90 89 88 54 60 59 83 82 71 55 46 36 37 28 24 24 22 26 28 26 24 19 16 16 17 16 16 16 14 13 11 13
100 100 100 90 96 96 100 100 100 100 98 83 65 53 65 56 47 59 69 60 47 40 38 30 26 26 27 31 36 34 31 27 22 20 18 18 19 18 18 17 16 13 13
100 96 97 87 84 96 100 59 63 84 66 43 52 77 62 60 69 61 59 56 43 38 32 28 28 29 37 37 38 36 33 29 25 21 21 20 22 21 20 19 18 16 14
100 100 100 93 73 81 83 55 66 58 73 100 100 86 73 76 64 58 45 42 40 34 30 29 35 40 39 40 40 38 35 32 29 23 21 20 22 24 22 21 22 21 16
100 93 92 96 77 67 72 84 86 100 100 95 72 88 75 62 52 44 43 41 36 33 32 35 43 46 45 40 40 37 35 34 32 29 24 23 22 24 24 22 22 24 22

GFSGL_250_rhum_009.txt.gz
RH
22 24 25 23 22 23 25 26 26 28 30 32 34 37 37 37 35 30 24 19 16 14 13 14 14 14 14 16 18 20 31 30 28 24 25 31 35 56 85 83 85 99 100
23 25 24 23 24 27 28 28 28 29 31 35 36 36 38 40 43 32 25 27 20 15 15 16 15 14 17 20 22 26 26 25 32 32 46 52 70 100 100 100 99 100 100
25 25 24 24 27 29 30 30 31 31 32 36 38 38 42 46 48 38 28 24 20 18 17 17 16 16 27 25 24 29 33 38 36 40 34 35 63 76 75 60 88 100 100
25 25 25 26 28 29 30 31 31 30 32 31 34 39 44 48 42 36 29 34 22 21 21 18 17 27 33 30 28 32 32 37 44 56 38 37 48 34 33 38 37 34 51
26 26 27 27 28 28 29 30 30 29 30 33 35 38 36 44 39 39 46 27 29 23 22 19 21 43 42 38 30 32 36 45 57 55 52 69 50 40 39 45 42 45 56
28 28 28 28 28 28 28 29 30 29 32 35 39 40 44 41 56 58 56 48 35 34 24 21 41 50 54 42 32 32 46 39 59 62 51 35 34 36 33 34 35 38 70
28 28 28 28 28 27 28 30 30 33 36 35 38 44 48 45 52 35 32 27 32 20 19 30 35 52 53 32 40 38 38 38 41 39 35 38 36 37 34 32 30 31 56
29 28 27 26 26 28 30 32 34 35 36 38 67 99 48 42 50 56 37 26 21 20 22 42 56 56 45 50 40 37 40 34 36 38 41 40 42 43 44 45 45 44 46
28 27 26 26 27 29 31 33 34 35 64 100 100 78 57 60 43 32 25 20 20 19 30 34 38 33 30 49 60 36 35 35 37 39 44 46 49 45 44 44 42 40 42
32 31 31 32 32 32 33 34 35 55 95 100 82 70 33 31 36 23 21 21 21 26 34 35 32 34 47 64 42 36 39 38 38 44 48 52 46 46 42 39 36 35 34
35 36 36 37 37 36 36 38 64 85 67 64 37 35 30 32 24 22 23 24 25 35 35 30 30 35 41 39 40 42 41 39 46 50 51 48 45 41 39 34 30 26 25
38 38 39 40 41 39 39 68 88 68 45 40 36 36 28 23 24 28 27 26 29 29 28 33 36 40 40 43 44 42 38 42 45 44 44 41 39 35 31 26 22 20 18
37 38 39 39 40 40 55 60 53 37 35 35 33 26 22 24 30 30 30 33 33 40 37 37 42 46 45 46 42 43 44 47 46 42 36 34 31 27 22 18 16 12 10
31 33 34 35 36 40 36 45 35 33 30 26 23 23 26 28 31 31 35 48 48 48 56 56 58 56 54 39 44 50 48 49 41 33 30 28 25 19 15 14 12 11 10
23 52 72 66 37 29 28 27 27 25 24 24 26 29 31 31 33 54 72 77 65 61 52 56 54 51 46 49 55 60 53 42 30 26 24 21 15 13 11 11 12 11 12
20 25 58 97 73 32 28 28 26 27 30 34 37 37 35 38 57 69 93 97 70 57 61 51 39 49 66 83 79 64 41 33 30 27 20 15 14 14 13 13 13 13 12
57 67 57 54 48 53 41 36 33 34 34 35 40 37 39 44 64 73 98 82 75 60 47 45 49 41 49 67 57 44 35 30 25 19 15 14 14 13 12 13 14 13 13
50 74 68 66 82 55 33 34 39 60 82 77 79 87 100 100 89 100 80 74 87 67 63 52 51 57 58 52 43 35 30 23 17 15 15 13 14 13 13 13 14 12 13
65 63 42 32 22 28 48 41 49 82 100 100 100 100 100 100 97 84 75 81 76 60 60 66 66 63 55 39 32 31 24 18 16 18 19 18 16 15 14 14 13 13 13
35 33 35 41 76 100 74 100 92 100 100 100 100 100 100 78 81 85 89 68 50 51 56 65 55 55 43 36 34 28 21 20 22 24 25 23 19 15 14 14 14 14 13
100 100 89 100 100 100 100 73 90 70 99 93 100 100 74 74 100 100 86 68 69 88 72 65 62 49 42 33 30 24 21 25 26 30 29 27 23 17 15 15 14 14 14
100 96 83 100 100 100 100 100 79 79 96 100 100 100 60 97 98 66 50 51 73 67 63 64 52 49 39 35 26 23 26 29 33 34 32 28 26 20 14 15 15 16 16
100 100 100 100 100 100 93 85 100 100 100 100 94 91 100 60 51 55 69 100 84 79 64 51 50 40 40 31 25 32 35 41 40 37 33 29 27 24 18 15 16 17 18
100 100 99 100 100 100 99 100 100 100 100 80 100 100 97 60 51 71 84 98 72 64 57 60 45 40 39 30 29 33 40 41 38 36 35 32 29 26 24 17 15 18 19
70 72 69 63 53 63 56 100 100 93 77 90 100 100 84 55 70 98 100 91 71 66 61 61 48 41 38 31 36 40 43 41 39 37 38 35 32 29 26 22 16 18 20
70 71 72 65 77 100 100 100 100 100 100 100 100 92 54 88 100 100 95 85 75 67 68 57 44 43 37 34 42 48 47 44 42 41 41 40 39 34 29 26 20 18 20

GFSGL_250_rhum_015.txt.gz
RH
29 34 34 26 18 18 20 21 22 23 23 24 27 26 27 28 33 39 39 38 46 65 78 77 72 48 37 26 22 23 23 23 21 21 24 24 30 48 48 41 41 33 32
40 35 34 24 18 19 20 23 24 25 24 23 25 26 27 33 36 34 34 57 100 100 100 78 78 56 48 28 24 24 24 24 22 20 23 29 32 41 43 47 44 38 37
25 19 20 20 20 22 22 23 25 25 25 25 25 26 27 29 32 38 59 100 100 100 97 100 89 75 56 29 25 25 27 29 28 29 40 44 49 49 54 53 44 46 45
24 21 21 22 22 22 23 24 25 26 26 26 25 26 27 30 35 42 46 81 100 100 100 100 93 96 63 29 25 26 28 32 36 50 67 55 41 40 48 50 49 49 44
24 23 23 23 24 23 23 25 26 25 27 28 27 27 28 30 34 34 48 90 97 100 100 100 100 100 74 34 26 27 33 39 42 60 49 39 33 44 49 52 52 50 47
30 29 28 28 26 25 25 25 26 26 27 27 28 27 28 30 32 34 39 100 100 100 100 100 100 100 76 35 28 30 35 36 36 38 37 39 40 38 41 38 39 55 66
33 30 33 32 32 31 30 28 29 29 28 28 28 29 30 31 33 34 39 55 92 100 100 100 100 94 61 29 28 35 34 36 36 42 43 50 50 46 42 37 36 46 65
39 34 32 31 31 31 31 31 31 30 30 30 31 32 33 34 35 36 38 40 73 100 94 85 80 100 43 28 33 37 38 42 52 51 56 54 52 43 39 39 44 55 57
40 36 36 36 37 35 34 33 34 34 35 35 35 35 37 36 36 39 40 46 60 67 70 94 100 83 43 37 38 36 39 45 50 64 62 65 57 43 33 33 43 43 42
45 45 41 38 38 38 37 37 36 36 36 36 36 36 37 35 36 38 42 61 58 63 100 100 100 72 57 44 42 46 49 54 61 54 54 44 40 50 40 33 32 29 27
20 35 43 44 44 43 41 38 38 37 37 37 37 38 38 38 44 82 74 60 88 100 100 100 93 69 50 46 48 51 56 60 71 56 39 42 46 45 29 28 24 24 21
12 12 15 22 31 37 38 37 36 34 31 33 38 38 43 72 74 100 100 100 100 100 98 96 75 60 56 56 58 59 55 68 64 58 46 38 43 35 30 23 22 17 13
12 9 8 8 8 10 13 14 16 19 18 33 34 57 66 100 100 100 100 100 100 100 100 85 78 70 65 54 62 62 63 73 65 70 64 46 44 30 23 21 18 11 10
16 14 12 9 8 8 13 24 37 30 11 34 60 89 100 100 100 99 100 100 100 100 97 88 85 68 51 56 64 62 76 69 59 67 45 44 37 30 21 18 12 11 13
18 15 12 36 64 65 84 83 81 36 26 62 87 100 100 100 100 100 100 100 100 100 100 92 91 66 43 66 76 76 77 56 63 53 68 68 35 23 18 13 13 15 15
28 52 70 85 100 100 100 100 76 86 100 100 98 100 100 97 100 100 100 100 100 100 100 100 86 58 71 74 87 88 56 54 61 72 66 41 37 25 18 13 16 18 18
91 100 76 94 97 90 96 82 94 100 100 100 91 100 100 100 100 100 100 100 100 100 100 90 87 69 86 78 74 56 55 62 74 65 44 42 38 24 19 16 20 19 20
99 94 88 98 100 100 100 100 100 84 100 100 100 100 100 100 100 100 92 100 100 99 92 88 74 87 66 65 50 48 78 82 80 53 55 41 42 32 21 19 22 21 22
100 100 100 100 100 100 94 100 100 86 95 100 100 100 95 100 98 100 100 100 100 98 88 62 66 68 66 62 51 62 84 94 73 68 58 47 42 34 25 23 25 24 22
100 100 100 100 100 100 100 89 91 99 100 100 100 100 100 100 100 100 100 94 88 95 62 48 49 81 77 62 54 75 96 98 67 66 56 47 45 43 31 26 28 25 23
100 100 100 100 100 100 90 100 80 100 94 100 86 99 100 100 100 88 87 96 66 95 63 42 59 99 76 75 75 94 90 80 62 58 72 49 56 49 36 28 28 27 25
100 100 100 100 100 100 94 97 92 100 89 83 89 65 57 52 63 91 90 70 40 37 61 80 85 96 72 69 62 100 96 66 50 78 65 62 53 50 44 33 31 30 28
100 100 100 100 100 98 89 100 88 71 59 43 41 41 46 52 43 48 43 37 45 61 85 100 98 78 59 56 100 100 77 54 61 75 63 62 64 57 47 39 36 33 30
99 94 100 97 95 94 87 76 72 62 57 51 44 40 44 41 48 50 59 63 89 100 100 100 79 56 55 100 96 84 67 54 63 70 69 63 65 61 56 40 39 38 33
100 100 100 100 100 100 99 91 86 69 73 67 73 70 72 73 90 100 95 90 100 91 93 81 78 65 61 96 91 76 72 65 82 73 64 72 70 61 58 45 40 43 39
100 100 100 94 93 86 90 86 81 74 78 81 86 91 100 100 100 100 100 92 90 74 70 100 90 74 78 100 100 78 71 83 84 73 73 80 72 63 59 52 40 45 43

GFSGL_250_rhum_021.txt.gz
RH
42 42 40 36 30 28 28 29 36 41 24 19 20 21 23 25 25 25 25 25 26 28 30 32 34 36 40 46 56 52 50 69 98 92 90 60 54 49 46 46 48 40 45
47 48 42 42 38 34 35 74 48 45 34 19 20 21 22 23 24 24 24 24 26 28 31 32 34 36 42 47 48 56 79 100 100 100 87 67 60 55 52 54 45 52 49
38 38 38 36 33 33 64 100 61 32 29 22 21 21 22 24 24 25 26 26 27 30 31 33 35 37 39 43 46 62 98 99 100 100 89 75 63 59 60 50 49 44 44
39 42 38 33 29 31 50 56 50 28 23 22 22 22 23 25 26 27 27 28 29 31 33 35 37 38 40 45 46 92 100 99 84 100 81 75 77 69 67 62 53 52 42
30 29 29 27 24 23 22 21 23 26 24 22 22 24 26 28 29 28 28 30 32 33 35 36 38 40 43 46 44 93 100 94 85 100 87 83 84 79 66 60 54 45 43
34 37 36 35 34 33 32 29 30 29 29 30 30 31 37 36 30 29 30 32 34 35 38 38 39 42 45 45 50 100 76 56 69 86 74 85 74 85 79 68 65 54 52
39 36 34 33 34 33 32 32 30 31 34 35 32 31 32 32 32 33 35 36 36 39 40 42 44 44 42 42 89 57 48 54 62 63 89 85 99 86 86 80 75 72 67
46 50 50 50 47 44 42 40 38 36 37 41 43 41 37 38 38 38 38 40 41 42 42 43 43 39 30 99 65 51 61 68 67 84 88 100 98 93 91 87 89 82 73
19 17 16 18 23 25 24 26 31 36 44 48 48 48 46 45 43 40 31 32 42 40 41 36 28 38 100 82 61 51 47 63 76 94 96 100 100 100 94 85 91 89 70
21 19 17 18 20 19 17 18 17 16 13 12 12 15 18 19 18 18 17 18 32 26 22 36 87 95 100 92 89 75 66 75 84 94 100 100 100 100 98 100 96 85 51
24 25 24 21 20 18 18 16 19 20 20 20 18 17 14 11 11 15 14 9 14 21 78 100 100 93 76 99 88 65 64 82 92 100 100 100 100 100 100 89 99 77 48
27 27 29 28 28 25 25 25 27 24 22 21 20 18 16 13 12 18 11 21 49 100 95 100 100 100 99 89 92 89 96 80 84 100 100 100 100 100 100 99 98 67 46
22 22 25 27 27 30 36 34 27 29 26 26 22 23 21 20 73 50 34 87 83 97 100 100 100 100 100 100 100 90 92 100 90 100 100 100 100 100 100 100 58 39 53
18 18 18 20 25 28 33 36 34 28 25 30 21 23 25 99 65 88 91 87 95 100 100 100 100 100 99 100 100 93 100 96 100 100 100 100 100 100 100 80 47 43 48
17 16 17 18 22 28 32 32 36 45 37 20 23 21 23 100 97 95 100 100 100 100 93 100 100 100 100 100 97 100 100 100 100 100 100 100 99 97 99 47 37 56 43
17 16 17 21 24 29 30 35 40 58 66 24 20 20 40 71 92 100 99 100 100 100 100 100 100 100 100 100 100 100 98 99 100 100 100 100 100 100 82 42 50 56 42
17 15 16 22 25 26 34 40 74 100 79 32 20 41 81 100 87 100 100 100 100 100 100 100 100 100 100 100 100 100 100 93 100 100 100 100 100 100 59 51 58 66 40
17 18 18 23 29 31 26 61 100 99 43 20 76 100 99 100 100 100 100 100 100 100 100 100 100 100 100 100 98 99 76 89 100 100 100 100 100 96 56 58 73 54 42
24 27 29 29 29 34 30 70 83 68 24 32 76 100 72 94 98 100 87 68 79 97 100 100 100 98 100 94 88 65 61 86 99 100 100 100 68 59 61 69 76 58 36
34 34 26 36 36 27 20 73 56 90 42 82 91 89 94 89 93 89 62 67 72 99 100 100 97 100 100 85 72 50 90 100 100 100 92 62 67 67 66 60 71 50 38
51 44 56 49 48 34 18 68 54 100 100 100 100 100 100 100 100 98 100 76 97 55 48 99 100 100 93 77 67 67 93 100 100 77 66 68 70 75 76 80 51 42 41
43 63 62 51 38 24 28 81 89 100 100 100 100 100 100 100 95 99 100 100 100 95 72 48 88 100 62 57 70 95 100 96 82 73 72 74 76 79 84 59 50 46 40
58 71 54 33 41 22 21 68 82 99 99 100 100 100 100 100 100 100 100 100 99 100 100 83 68 64 67 93 100 100 100 79 74 73 64 77 80 79 87 64 51 53 52
87 84 75 61 51 30 24 61 70 100 100 98 98 99 100 100 100 100 95 100 100 100 94 57 58 84 100 100 100 95 77 74 71 73 78 77 73 77 67 60 53 57 47
86 93 93 92 82 47 28 32 59 97 100 100 100 100 100 100 100 100 100 100 100 100 100 100 100 100 100 83 76 72 70 71 74 71 86 77 78 71 70 66 61 49 42
100 100 100 100 100 88 48 37 53 95 100 100 100 99 100 83 95 100 100 96 100 96 93 96 89 80 76 77 75 80 75 71 75 79 81 92 82 78 69 59 68 58 48

GFSGL_250_rhum_024.txt.gz
RH
33 36 34 36 37 39 37 34 32 33 41 36 37 34 21 19 20 21 22 24 25 27 28 29 30 32 34 36 43 50 47 40 84 58 41 43 61 67 56 62 92 79 83
28 32 35 42 44 44 44 39 38 33 49 70 30 31 24 20 21 21 22 25 27 29 29 29 31 34 35 38 44 52 48 42 49 42 44 68 82 60 61 66 85 86 84
28 34 38 42 48 45 39 34 31 28 71 83 57 27 21 22 22 22 24 26 29 30 29 30 33 34 36 39 47 52 43 54 40 47 50 46 70 64 71 85 75 98 94
30 38 40 44 42 37 35 35 33 29 27 37 30 25 24 22 23 24 25 28 31 30 31 33 35 35 35 41 48 44 38 62 36 45 44 54 61 62 83 99 99 100 100
26 27 29 29 31 33 36 37 29 25 23 23 23 24 25 29 31 30 31 32 32 34 35 36 37 37 40 45 45 40 66 69 42 48 45 56 69 72 94 99 95 100 100
59 37 28 27 28 29 26 25 28 32 34 33 32 31 31 31 33 37 41 40 39 39 40 41 42 44 46 44 34 36 100 69 54 60 54 64 73 82 94 86 100 100 100
34 35 35 34 35 35 35 34 32 31 30 33 37 39 40 42 44 46 45 45 48 48 45 44 42 43 35 34 40 84 100 77 62 62 49 61 57 60 99 91 100 100 100
41 40 41 42 42 42 40 43 46 47 42 40 34 31 28 24 23 22 21 26 34 37 35 27 27 25 27 42 90 100 83 84 64 91 83 88 82 80 100 91 99 100 100
42 42 43 45 40 28 22 21 19 15 14 16 16 16 17 16 15 15 15 15 19 21 18 19 20 23 35 84 66 81 79 73 81 90 98 83 95 100 89 100 100 100 100
16 14 15 17 19 20 19 18 18 18 20 23 21 19 19 20 20 19 17 16 20 26 23 18 23 34 100 88 57 100 100 99 86 80 100 88 100 98 100 100 100 100 100
21 23 24 25 24 23 21 21 23 26 29 25 25 26 23 18 17 18 22 19 20 22 22 24 30 100 100 97 72 100 100 100 98 61 100 87 100 100 97 100 100 100 100
28 26 26 25 25 25 23 21 25 25 26 24 25 28 29 28 24 24 23 22 22 16 79 52 87 100 100 100 100 100 95 83 100 80 100 100 100 100 100 100 100 100 100
27 26 25 26 21 18 17 15 15 22 18 20 23 27 30 30 33 26 25 24 21 66 100 100 100 100 100 100 100 100 92 76 82 100 100 100 100 100 100 100 100 100 100
23 22 20 20 21 20 20 16 13 14 15 16 19 26 28 34 43 49 36 21 56 100 100 100 100 100 86 90 98 99 100 100 100 74 86 100 100 100 96 100 100 100 100
29 25 22 20 18 14 14 14 13 13 14 15 21 24 34 49 99 96 40 29 86 99 90 100 100 100 92 100 97 100 95 76 85 98 100 100 100 100 100 100 100 100 87
29 28 26 20 15 14 12 12 11 13 14 15 23 28 40 60 100 100 88 26 55 98 92 100 100 100 100 100 100 100 100 100 100 100 100 100 96 100 100 98 100 100 75
18 18 19 20 19 16 13 12 12 13 14 17 18 35 64 81 100 77 65 99 78 78 100 100 100 91 99 80 100 100 100 100 100 100 92 58 86 84 94 100 100 95 66
27 26 25 24 19 16 12 12 12 10 12 16 20 38 66 83 100 90 100 100 99 96 100 95 99 92 100 100 100 95 75 56 51 50 50 77 74 85 90 100 100 95 76
19 24 27 27 21 18 19 17 13 9 11 11 15 25 44 70 82 81 100 100 100 99 100 100 99 75 75 68 73 60 46 56 59 70 80 86 79 88 88 100 94 92 65
53 42 34 27 22 21 18 17 16 12 11 12 13 15 43 73 84 83 100 100 97 99 93 81 87 87 76 65 62 58 65 74 100 97 98 100 94 96 100 99 88 75 64
94 96 100 100 98 75 42 34 35 21 16 14 15 14 45 98 87 97 100 96 100 100 100 100 100 96 98 100 96 100 100 100 100 100 100 100 100 88 80 94 80 73 63
100 100 100 98 79 56 39 35 37 39 22 17 15 25 50 100 100 100 100 100 100 100 100 100 100 100 100 100 100 100 100 100 100 100 100 100 100 96 99 87 72 69 58
100 99 95 77 48 37 32 32 27 25 26 20 14 22 56 63 100 98 100 100 100 100 100 100 100 100 100 100 100 100 100 100 100 100 100 100 100 92 82 69 63 61 62
67 69 48 38 26 22 26 28 25 25 30 22 15 19 85 78 91 96 100 100 100 100 98 98 99 100 100 100 100 100 100 100 100 100 98 95 89 84 74 62 57 61 53
100 100 94 55 45 37 34 35 33 30 25 25 17 24 41 100 100 97 100 100 98 99 100 98 94 87 90 90 100 99 98 100 100 100 94 84 77 68 66 64 60 55 51
84 97 98 91 65 54 50 40 38 46 71 37 22 20 15 55 99 100 100 100 100 100 100 100 100 100 100 100 84 100 89 94 97 84 82 73 61 60 58 55 51 44 48

GFSGL_250_rhum_027.txt.gz
RH
40 38 35 29 30 29 29 32 36 41 38 31 31 59 57 33 27 18 18 19 20 23 25 29 32 32 32 33 34 38 47 47 33 46 35 38 36 48 52 61 74 100 100
48 45 36 29 29 27 34 37 35 31 30 30 25 54 92 60 36 26 21 20 21 25 28 31 32 34 34 36 40 42 44 43 34 55 39 42 40 41 41 54 63 100 100
28 45 35 27 29 31 38 41 39 42 42 32 33 29 34 46 34 28 26 27 28 30 31 34 35 35 38 40 42 44 45 34 42 60 41 44 54 51 46 44 64 78 100
25 26 26 26 29 34 38 41 44 46 36 35 38 27 26 28 31 32 32 32 31 32 34 38 40 44 49 50 47 46 41 30 46 64 53 53 65 53 49 54 75 98 100
18 18 17 20 28 34 38 42 40 35 32 36 30 26 31 34 33 32 32 32 34 37 40 41 44 46 47 46 46 44 38 27 57 60 59 58 71 61 70 53 55 56 100
23 25 24 25 26 30 33 33 28 26 27 24 28 33 33 29 28 34 37 39 39 36 30 26 22 27 33 39 39 29 22 25 78 77 72 70 77 62 64 48 45 65 96
43 87 99 81 56 45 38 31 27 26 29 31 32 33 38 42 41 33 24 19 19 20 18 16 16 17 18 18 21 20 20 63 82 86 88 73 94 78 62 48 50 60 98
28 30 29 31 35 32 27 28 31 35 42 43 39 35 26 19 16 16 16 17 18 19 18 16 17 18 20 19 20 23 75 82 77 97 100 92 68 64 54 52 62 79 82
39 38 38 37 36 36 39 42 43 39 34 27 18 18 16 18 17 18 19 21 22 23 23 20 22 24 22 27 18 60 76 98 96 90 89 62 48 45 84 55 66 68 81
46 46 46 46 42 37 31 29 22 18 17 19 21 19 19 21 21 22 20 20 21 24 28 33 27 23 29 80 68 100 100 100 100 100 100 62 54 60 94 56 69 84 100
39 34 27 26 25 23 20 18 19 20 21 22 19 17 20 23 20 17 16 17 20 27 36 39 28 26 34 83 100 100 100 100 100 100 93 74 64 89 81 72 65 100 100
17 19 19 18 18 20 21 20 18 19 21 20 17 15 15 16 15 15 20 20 23 32 63 43 34 58 57 98 100 98 96 100 100 96 98 100 100 97 92 100 70 82 88
23 24 23 23 24 24 23 18 15 17 19 18 16 13 13 12 11 12 15 22 29 38 66 52 100 100 100 100 97 85 87 92 100 95 91 81 72 65 100 100 100 90 100
28 26 25 25 25 25 24 22 19 16 17 14 12 11 10 10 11 11 13 19 28 50 66 46 96 100 100 100 100 100 88 100 92 82 100 100 100 100 98 100 84 100 100
32 28 25 22 21 21 20 19 19 17 15 15 12 8 8 9 10 12 15 17 23 45 61 56 74 94 92 100 99 100 97 100 78 100 100 99 100 100 88 64 96 80 100
23 24 24 22 19 18 18 17 16 15 14 12 11 13 13 13 10 10 10 15 22 27 57 81 64 100 100 100 100 100 100 100 100 100 100 100 100 99 77 73 69 66 100
28 28 25 20 17 17 18 17 15 14 14 14 17 19 15 10 10 10 10 13 16 20 55 67 91 96 100 99 80 100 97 100 100 100 90 100 96 78 52 75 75 93 100
24 28 31 34 34 33 31 28 25 24 22 20 21 23 22 13 11 12 11 9 10 12 29 97 93 83 100 95 99 98 100 100 100 98 80 66 66 67 55 78 89 100 100
24 23 23 22 21 20 21 21 22 21 17 17 17 18 19 13 8 10 12 13 15 16 22 73 100 100 98 100 100 82 96 100 100 100 86 82 94 87 92 100 100 100 100
26 26 26 24 22 24 30 32 30 26 31 35 33 33 27 22 12 12 13 11 13 16 16 70 98 100 100 99 100 100 98 94 98 100 99 100 100 100 100 100 100 100 100
26 24 22 21 21 29 47 61 61 64 73 52 44 38 34 34 29 22 10 11 14 15 18 69 95 99 100 100 100 100 100 100 100 100 100 100 100 100 100 100 100 100 100
40 42 48 58 70 61 60 67 59 70 67 74 77 78 71 58 55 30 20 13 14 15 24 82 100 100 96 100 100 100 94 100 100 100 100 100 100 100 100 100 100 100 100
54 59 57 53 59 59 60 70 96 100 100 100 97 83 76 64 34 34 22 19 16 14 17 53 99 100 100 100 100 100 100 100 100 100 100 100 100 100 95 87 100 100 100
63 58 49 38 38 37 35 38 36 57 63 56 44 40 30 21 18 19 23 18 18 15 16 53 98 100 100 100 100 100 100 100 100 100 100 100 99 97 92 76 76 100 81
38 32 43 45 37 29 35 46 53 69 41 27 21 20 29 21 25 31 22 18 23 20 18 48 98 100 95 98 98 100 100 100 100 100 100 100 100 100 95 92 100 100 94
35 32 37 49 34 25 31 30 25 23 29 23 23 32 39 40 36 36 28 33 49 47 36 30 71 100 100 100 100 100 100 100 100 100 100 100 100 100 99 100 100 100 100

GFSGL_250_rhum_030.txt.gz
RH
41 48 49 43 40 30 30 27 25 22 27 25 29 31 30 46 92 85 73 42 28 24 23 25 29 29 31 33 37 41 45 44 44 40 29 50 42 39 38 35 40 42 38
73 70 58 44 34 28 28 28 25 29 29 34 34 36 34 35 31 29 35 25 26 28 28 28 28 30 32 34 36 40 42 46 46 41 26 45 44 42 47 37 38 40 49
59 60 52 42 38 36 28 29 30 36 41 44 45 44 35 37 38 26 24 25 27 26 27 32 34 36 38 39 39 39 40 38 36 30 20 43 52 44 46 43 41 34 32
48 52 51 47 47 46 32 32 32 38 41 43 47 38 36 38 31 24 25 27 29 34 40 42 35 32 29 29 25 27 24 22 20 19 17 45 64 54 53 56 40 50 28
38 35 26 24 32 42 31 31 35 37 39 42 41 36 34 30 24 27 28 32 39 39 33 23 20 19 17 17 15 16 16 18 18 17 16 58 59 77 72 46 53 53 45
36 12 16 23 28 21 19 22 27 32 36 38 32 28 26 24 27 31 40 36 27 18 15 16 18 18 17 16 17 18 18 17 17 18 45 51 73 72 76 39 51 53 57
15 8 15 19 19 20 21 22 24 27 28 29 33 30 26 29 38 38 26 17 17 17 18 18 19 21 23 20 22 23 23 20 14 40 72 58 66 61 37 42 66 48 44
16 21 23 25 33 88 94 88 72 68 65 44 29 29 34 41 33 19 16 18 18 18 15 14 15 19 37 36 24 23 39 34 48 100 77 51 35 47 44 49 47 83 82
16 17 24 27 37 30 25 27 31 33 32 33 38 40 36 19 17 18 16 18 20 16 15 15 16 24 45 49 28 23 100 96 100 100 81 37 52 70 92 74 59 66 50
22 20 20 24 28 28 27 33 36 40 43 44 38 29 19 19 18 15 15 14 16 12 13 14 17 27 60 54 36 42 100 100 100 71 64 85 100 100 100 93 100 78 74
42 40 38 37 38 39 40 44 46 47 39 30 21 22 23 19 16 15 13 10 10 10 10 11 12 17 58 78 85 100 100 100 100 84 93 100 100 100 100 100 100 100 90
46 46 46 46 46 45 44 41 38 29 23 20 21 21 17 15 16 12 10 9 9 9 9 10 11 16 39 76 83 100 100 78 96 100 100 100 100 100 100 100 100 80 87
20 19 18 20 20 21 22 23 23 23 22 22 20 18 17 19 20 17 16 14 10 9 10 8 9 11 42 60 84 100 100 100 97 86 100 100 100 100 100 100 100 100 79
37 34 32 38 34 32 33 29 25 24 23 23 21 19 18 18 19 16 16 15 13 18 15 13 13 9 11 21 38 100 91 92 100 94 91 99 100 94 100 100 100 100 100
37 31 30 32 35 31 28 25 24 25 25 23 21 20 21 21 20 18 13 12 16 19 18 19 14 10 10 13 23 46 100 98 100 95 95 91 95 100 100 100 100 100 100
34 35 34 33 33 30 26 23 24 25 29 35 37 30 26 17 11 12 12 12 16 23 23 22 11 9 11 16 23 67 88 100 98 94 100 100 100 100 100 100 100 100 98
28 26 25 24 24 24 24 24 21 18 16 15 15 15 14 13 13 15 16 16 13 12 10 11 12 12 13 12 13 39 76 92 90 82 100 83 78 100 100 100 99 99 100
35 30 30 30 26 25 25 23 22 20 16 15 13 13 13 12 12 11 12 12 14 19 21 21 23 28 25 11 10 18 86 88 100 91 98 84 66 87 100 100 99 84 88
35 28 26 24 22 20 19 18 17 17 17 17 18 18 17 16 15 21 26 23 23 26 25 25 23 19 18 12 11 13 57 72 99 81 99 100 100 100 100 100 100 90 100
32 26 24 24 23 22 23 23 23 24 23 23 22 20 19 20 21 27 28 22 18 22 19 16 23 21 21 16 14 18 55 78 74 84 100 100 100 100 100 100 100 98 100
34 31 28 27 27 27 27 26 26 26 26 26 25 26 26 27 25 24 25 29 33 24 18 25 22 22 19 18 16 15 45 86 100 100 100 99 100 100 100 96 97 100 100
43 40 40 38 38 37 36 34 31 30 31 31 30 30 26 26 29 33 26 26 30 22 19 27 26 18 13 14 17 14 87 91 99 100 100 100 100 100 100 98 100 100 99
55 48 42 41 41 40 42 40 37 34 32 28 26 27 28 30 30 34 31 24 20 19 18 14 14 12 14 19 15 12 83 100 95 99 100 100 100 100 100 98 99 94 100
61 57 54 51 48 41 37 37 37 37 35 38 44 41 42 39 35 34 37 32 21 18 15 14 17 17 27 22 14 14 33 100 100 100 100 100 100 100 100 100 91 90 91
48 57 64 64 71 78 72 67 64 65 54 53 53 45 36 32 29 30 25 30 19 21 21 19 20 28 31 24 24 22 23 20 90 100 99 100 100 100 100 100 100 92 100
33 38 39 43 46 48 47 52 44 46 46 45 43 36 31 28 27 23 28 31 24 21 24 26 34 35 35 32 25 39 47 50 66 100 100 100 100 100 100 100 100 100 100

GFSGL_250_rhum_033.txt.gz
RH
26 29 26 18 20 26 27 32 31 24 21 19 29 35 38 33 32 34 32 26 22 21 25 28 28 31 36 39 40 39 37 34 35 32 28 27 31 24 34 43 29 38 34
27 33 33 28 30 32 32 28 27 26 24 24 30 38 40 41 37 32 28 27 22 26 26 26 32 39 40 33 25 20 20 21 22 19 19 16 16 19 25 45 47 32 40
33 43 38 32 38 45 35 30 28 27 26 30 33 38 41 43 40 33 25 23 24 26 29 36 34 26 18 14 14 15 16 16 17 16 17 18 16 14 18 42 51 51 41
43 41 42 41 58 58 40 38 36 30 30 33 38 41 40 40 36 35 26 24 26 31 39 22 16 16 17 17 15 20 18 17 16 16 18 17 17 14 25 59 52 43 48
41 46 59 66 69 54 49 48 48 41 30 31 34 35 36 34 35 30 28 26 33 38 22 15 17 16 14 14 21 34 30 23 18 20 20 20 19 30 51 61 52 48 46
41 48 44 45 51 53 53 39 32 41 31 30 32 32 32 33 31 36 27 33 37 20 16 17 16 13 12 12 14 51 33 21 20 31 23 17 54 74 75 50 49 54 78
33 36 39 45 49 40 21 21 30 28 19 18 21 24 26 32 50 28 36 38 20 17 17 17 12 10 12 13 14 42 51 25 41 81 80 89 58 38 41 54 69 82 72
26 31 34 35 28 26 13 20 20 20 22 24 28 38 66 51 30 37 34 26 17 16 14 10 9 10 13 15 17 41 58 48 96 100 100 83 66 49 81 78 96 100 100
12 15 19 17 14 12 11 18 22 39 67 42 46 44 33 33 42 41 31 19 18 14 13 10 9 9 12 14 19 29 79 78 94 100 100 93 50 48 52 82 87 78 61
22 16 10 11 14 16 19 23 31 40 34 30 32 35 38 45 46 30 15 19 17 15 15 10 10 9 13 16 14 23 50 72 96 84 100 72 67 67 62 71 89 78 54
37 26 24 23 21 20 23 26 28 33 36 38 39 40 46 44 30 18 17 13 14 15 18 14 14 13 20 30 23 16 16 41 70 100 58 64 85 98 66 77 81 76 68
43 42 41 39 39 38 36 35 37 39 41 42 44 42 31 26 20 21 15 13 12 12 16 12 11 12 17 18 25 20 12 14 21 87 99 88 100 99 77 79 90 88 99
40 41 40 41 42 43 43 42 42 40 35 31 26 23 24 21 22 22 19 15 13 14 14 13 15 13 14 17 20 15 13 12 21 40 90 100 98 85 100 90 85 97 100
21 26 29 30 30 30 29 28 26 24 24 25 25 25 26 26 25 24 22 21 19 22 25 19 14 13 16 13 10 12 16 25 41 41 44 73 100 98 84 90 100 100 100
29 25 25 29 31 26 23 22 23 26 26 25 25 26 27 26 24 20 26 47 61 36 19 15 15 14 14 13 16 21 27 27 22 16 38 89 89 88 92 65 93 100 94
47 56 50 39 34 31 30 27 29 26 28 28 27 27 25 23 29 49 55 37 24 18 14 13 13 14 17 17 22 19 16 18 23 20 42 78 100 100 85 87 97 100 100
39 43 43 40 40 39 39 34 32 32 30 30 32 31 36 37 32 25 18 14 12 14 15 16 18 18 25 27 22 25 22 15 18 18 17 18 59 100 98 73 100 90 100
36 35 38 38 38 35 34 32 32 32 31 30 27 26 26 23 19 15 15 16 16 17 17 17 18 20 21 18 16 17 17 15 13 11 14 16 26 65 63 48 78 100 100
44 40 36 38 46 44 52 60 51 50 47 52 52 47 26 20 17 18 20 18 18 20 17 16 19 20 21 18 16 16 13 10 10 9 13 17 31 55 41 60 90 100 100
41 43 42 41 37 36 38 38 38 40 32 28 23 20 18 18 21 20 20 20 20 20 18 22 25 26 24 21 20 18 18 12 10 8 11 15 18 56 73 97 100 100 100
33 38 43 42 43 43 38 36 35 32 30 26 23 22 20 20 19 20 21 20 19 20 25 27 25 24 29 26 22 18 16 13 10 13 14 13 29 73 80 100 100 100 100
42 38 40 39 40 42 41 38 35 32 30 30 28 26 24 24 24 23 26 28 28 33 29 26 25 31 34 28 23 20 16 14 11 16 23 14 28 100 100 100 100 100 100
64 61 55 51 49 53 56 53 50 44 40 38 38 36 35 35 36 37 37 33 31 27 29 31 33 34 36 35 21 20 18 15 14 17 22 97 90 98 100 100 100 100 100
73 63 59 56 56 53 51 52 54 52 45 41 40 41 43 41 41 36 28 27 27 29 31 33 41 49 47 31 19 20 21 20 20 20 20 76 100 100 100 99 100 100 100
81 72 70 69 62 59 53 49 48 45 44 44 42 36 36 41 40 32 31 35 35 36 39 34 42 50 26 24 23 23 22 26 32 28 26 25 97 100 100 100 100 100 100
74 66 62 59 57 55 58 64 64 56 52 58 57 56 45 36 33 32 34 35 35 32 30 42 38 28 25 23 24 25 30 32 35 35 48 34 27 96 100 100 100 100 100

GFSGL_250_rhum_036.txt.gz
RH
26 20 21 31 31 19 16 15 22 26 25 22 20 20 28 27 29 31 32 32 24 21 22 25 29 39 32 20 16 16 15 15 17 18 17 17 17 18 18 21 20 25 26
24 26 22 24 33 19 15 22 27 30 30 26 24 22 27 30 31 30 38 37 30 23 23 28 38 29 15 15 15 14 20 18 21 20 19 18 22 21 20 22 17 15 37
18 31 25 26 33 21 18 23 29 30 26 26 24 22 26 30 32 32 38 35 32 28 25 37 33 15 17 15 12 12 17 20 26 33 25 23 25 24 23 22 16 18 44
20 27 38 27 32 27 20 31 38 31 32 31 29 27 28 29 28 33 33 33 32 30 31 37 17 17 14 11 10 11 26 23 27 22 26 32 28 22 20 22 42 56 60
20 24 37 33 32 35 32 38 49 39 38 36 37 31 30 30 31 32 32 31 42 30 38 26 16 16 11 10 10 10 43 47 43 41 97 79 45 20 43 67 58 78 99
20 24 27 45 33 44 38 40 60 46 43 50 46 42 30 24 26 28 26 46 37 38 36 16 17 10 10 9 9 10 11 42 72 70 100 97 88 92 74 61 63 61 63
14 21 24 38 48 48 48 70 68 56 52 34 26 34 25 19 19 24 44 60 36 42 24 17 15 9 10 10 12 12 11 16 64 79 99 100 82 73 69 58 49 64 64
13 16 24 36 48 58 68 74 54 48 26 16 26 22 18 22 41 64 68 36 45 41 21 18 16 9 10 11 13 21 19 19 15 34 72 100 100 69 67 54 46 40 34
15 14 23 27 40 49 49 39 42 41 21 14 20 20 49 53 32 33 37 44 45 32 19 16 14 10 12 12 14 16 18 19 24 17 18 47 84 70 57 49 45 56 68
26 18 21 23 28 35 33 37 42 41 30 10 12 22 38 39 32 36 41 41 38 26 20 13 13 13 12 13 15 15 15 18 18 28 18 16 31 75 47 35 49 52 67
50 25 19 21 22 25 32 39 43 41 34 16 17 24 37 33 34 40 43 37 30 21 21 14 18 16 16 23 23 17 18 24 25 26 36 33 22 68 97 66 48 39 52
95 75 43 25 20 20 20 28 30 24 18 19 22 28 33 36 40 43 46 32 26 19 20 17 16 16 35 39 18 17 19 17 21 37 35 30 41 38 44 69 98 100 100
69 56 49 47 42 30 24 23 21 24 26 30 37 38 40 41 43 42 38 29 18 21 21 20 19 46 34 21 17 17 16 22 24 28 23 30 34 45 58 100 95 76 90
40 44 44 46 45 44 43 40 37 39 41 42 43 43 42 40 39 35 28 20 19 22 21 22 48 42 38 23 17 18 21 19 20 20 21 39 52 67 100 100 84 77 62
26 27 33 38 39 41 41 40 39 41 42 42 42 41 38 35 31 22 20 22 24 23 30 59 41 21 23 18 19 20 19 20 18 18 18 15 12 15 47 75 86 74 44
35 31 28 22 20 24 28 31 33 33 34 32 32 28 22 21 20 22 25 30 35 57 60 41 25 18 18 19 20 21 18 19 22 22 21 16 11 11 9 10 15 25 54
35 41 42 34 32 26 23 21 20 24 23 24 25 24 25 25 27 31 32 40 44 57 54 30 20 18 20 20 18 20 20 21 21 26 25 20 16 11 10 8 22 23 27
47 41 39 46 41 34 36 36 38 39 42 43 42 40 36 36 40 42 40 48 52 50 50 33 18 18 18 18 20 20 21 22 22 29 27 21 20 12 11 9 9 10 81
57 56 51 44 41 43 46 49 45 41 40 41 42 40 38 37 36 37 41 58 81 72 31 16 16 16 18 18 18 20 21 24 27 30 21 21 23 18 12 11 10 9 33
50 60 62 58 52 51 43 40 40 45 48 56 66 77 78 77 78 91 89 55 32 24 21 20 20 19 19 20 23 26 24 23 26 24 21 17 25 19 11 13 14 8 27
49 50 59 60 55 54 54 49 44 42 46 54 62 61 67 74 63 44 36 33 31 27 25 24 21 21 24 22 23 28 27 28 22 22 19 21 21 17 14 13 15 10 12
50 52 53 60 65 58 50 48 47 43 41 47 55 52 41 39 38 35 32 29 28 26 25 25 27 27 24 28 27 29 31 29 25 22 23 26 23 16 12 14 16 17 21
55 59 60 58 59 61 60 55 47 43 42 41 39 39 38 34 32 31 30 28 30 32 29 26 27 27 26 28 37 38 38 35 32 35 38 28 20 18 16 17 16 19 51
54 56 62 66 62 56 51 50 52 49 43 39 37 36 37 35 34 30 28 31 30 28 28 28 28 30 31 33 35 46 40 42 30 29 26 21 23 24 23 22 21 20 25
64 58 59 63 64 65 61 55 53 54 54 54 52 50 47 40 39 38 36 32 31 31 32 30 32 30 31 41 36 42 55 36 31 25 30 35 36 35 36 32 25 25 33
63 64 65 58 60 59 57 52 48 48 48 49 45 46 45 38 35 34 34 37 39 38 36 35 36 36 43 48 44 51 48 47 44 46 40 45 39 53 54 42 47 41 52

GFSGL_250_rhum_042.txt.gz
RH
14 15 23 23 26 26 23 22 21 20 22 20 17 14 14 14 14 18 25 25 28 35 36 34 41 38 28 17 11 8 8 9 17 17 17 48 88 99 57 29 24 24 22
29 17 14 23 26 25 23 21 20 20 21 18 17 17 20 17 18 20 20 24 28 30 36 33 46 40 36 19 11 8 12 12 12 18 16 16 42 99 100 99 73 35 23
38 25 18 17 28 28 25 24 22 20 21 18 18 22 26 24 21 22 21 22 26 31 35 30 51 41 39 25 15 9 11 15 14 16 19 20 18 27 79 97 97 96 90
32 36 31 19 17 27 28 23 26 22 20 20 17 22 26 25 25 28 31 30 30 32 30 25 56 43 43 30 18 12 12 16 14 14 24 37 31 22 16 46 74 77 84
16 18 31 29 20 16 29 26 22 30 26 21 16 23 30 29 32 36 44 42 36 29 20 22 60 42 43 38 24 18 10 13 14 16 16 22 34 35 32 37 34 47 58
32 18 15 34 36 18 15 27 27 24 32 29 18 18 29 39 40 44 45 29 37 24 20 28 62 39 44 41 30 18 13 19 19 16 24 18 30 38 54 75 76 62 59
38 36 25 14 32 40 22 16 32 31 25 29 31 20 21 44 52 48 51 22 28 23 66 74 39 41 42 40 32 21 13 19 28 25 30 48 47 46 66 74 76 74 83
34 43 40 26 11 14 32 22 17 34 33 29 31 35 30 39 55 60 55 18 23 31 47 37 33 38 38 44 43 26 14 21 22 17 26 33 27 23 33 49 50 51 81
36 48 48 43 23 11 13 21 21 20 35 50 43 37 46 47 52 70 59 29 20 19 22 40 37 36 37 41 46 30 17 19 30 26 20 22 25 18 19 24 24 25 24
29 46 51 48 46 21 12 12 16 21 30 43 57 46 48 51 61 75 60 48 32 14 16 25 36 34 36 42 46 35 21 21 55 37 22 18 24 19 16 17 16 17 19
11 27 47 50 52 44 29 16 14 16 20 34 39 62 64 67 90 85 60 48 44 39 25 18 28 36 41 43 45 39 24 24 44 53 26 20 24 21 18 16 18 18 18
11 15 34 51 55 53 49 43 26 16 17 19 27 40 63 81 88 95 74 50 46 44 37 19 26 33 41 43 46 38 26 23 28 64 43 32 17 21 24 26 28 27 29
12 12 15 38 53 56 54 53 47 35 18 19 24 32 58 62 54 54 57 50 45 41 33 25 35 39 41 44 44 34 27 26 29 77 60 31 19 19 23 25 22 22 25
12 13 14 18 28 50 57 56 55 49 30 23 26 26 27 31 32 33 37 40 40 34 31 44 43 44 44 41 38 31 31 33 51 63 57 41 34 22 21 21 20 21 23
15 13 13 14 17 25 46 53 52 52 52 35 20 20 23 25 27 28 29 28 28 32 43 46 45 44 38 36 32 46 77 57 54 52 61 46 51 51 24 19 22 26 29
21 18 16 17 16 16 20 37 51 59 76 69 55 44 36 30 27 28 30 34 37 43 47 44 41 41 33 30 51 68 88 69 59 60 48 52 84 49 24 26 28 35 35
25 25 22 18 19 27 40 53 64 76 100 100 100 100 74 59 54 52 51 48 44 41 39 38 35 30 36 59 58 58 67 58 52 41 44 78 64 32 31 33 35 37 35
24 26 28 25 22 21 24 28 33 44 54 68 71 60 48 43 42 44 41 35 34 33 30 31 33 42 55 59 59 56 51 47 42 41 71 97 71 39 34 38 36 32 35
29 28 30 37 34 31 31 29 26 25 27 28 29 28 28 28 28 28 26 26 29 36 48 52 52 49 48 44 44 45 46 48 58 88 91 79 54 38 40 41 36 32 34
37 31 28 28 33 42 39 40 43 41 38 36 37 38 39 40 41 43 47 48 51 53 55 54 52 49 48 50 60 88 98 98 99 93 80 65 44 43 45 42 38 38 33
60 54 45 39 35 35 40 44 46 44 42 48 55 57 56 54 54 57 60 63 64 61 60 59 61 58 56 63 69 68 67 69 72 72 71 49 44 45 44 39 37 36 34
63 57 55 51 45 40 38 37 35 36 45 50 50 54 61 65 66 66 64 62 60 60 70 72 67 67 68 68 61 55 55 55 48 45 46 50 50 44 44 37 37 32 28
60 54 46 46 46 46 50 52 56 56 53 52 55 58 61 64 65 65 65 66 71 71 72 71 69 67 62 60 58 54 53 52 54 57 59 50 46 40 35 30 29 26 25
44 56 49 42 48 59 61 58 50 49 53 57 60 62 60 56 54 56 58 60 62 64 70 72 75 75 73 71 66 62 62 60 57 48 43 39 36 35 31 27 25 25 27
44 45 39 31 47 62 62 57 56 53 50 48 49 49 49 48 49 54 58 62 64 66 67 65 63 59 58 54 53 52 50 46 40 35 41 37 34 26 22 24 27 23 21
72 47 38 29 29 42 45 46 50 54 53 49 42 43 44 48 45 46 47 49 52 54 52 49 42 40 41 44 43 38 37 34 32 40 38 36 36 23 24 31 29 28 33

GFSGL_250_rhum_045.txt.gz
RH
22 14 18 21 22 24 24 23 22 22 21 21 21 21 19 15 14 15 18 22 26 28 30 32 31 38 42 36 22 13 9 10 12 14 17 21 34 85 100 100 99 76 41
35 24 14 19 22 23 24 25 25 23 23 23 22 21 17 15 20 20 21 23 24 27 28 31 31 32 43 41 30 15 13 10 12 14 19 20 24 20 47 81 90 91 90
57 57 24 15 21 23 23 25 25 24 23 23 24 21 17 21 29 27 24 24 26 28 30 29 27 29 49 41 42 25 19 13 11 13 19 23 27 34 45 46 57 72 69
32 54 57 27 18 15 24 26 27 25 26 24 23 21 18 25 28 27 28 34 38 40 38 31 21 26 55 38 43 34 23 16 13 12 14 29 38 44 59 51 50 46 70
30 58 54 45 33 23 18 26 30 28 29 27 24 23 20 23 27 28 30 36 45 42 34 36 20 24 61 36 40 44 27 18 15 19 13 21 50 47 54 59 52 32 50
23 32 38 25 26 34 34 21 18 24 30 28 29 23 22 21 20 32 34 38 47 45 27 28 23 68 70 37 37 43 41 20 16 22 17 15 29 27 30 56 72 43 32
12 22 28 30 20 18 33 39 29 19 23 33 25 32 32 24 19 20 38 44 48 52 27 23 42 59 52 35 34 37 45 34 18 22 30 21 19 25 28 31 35 31 27
10 14 23 29 34 25 19 37 43 30 18 24 34 29 25 30 33 22 24 45 53 60 54 20 22 21 38 41 37 33 39 42 28 24 32 42 22 20 24 20 26 24 21
10 12 20 27 30 35 40 29 14 36 37 16 21 42 37 30 32 44 38 41 48 62 65 42 22 14 14 32 40 37 34 43 45 32 23 48 40 19 17 22 21 21 22
10 10 12 19 28 38 34 39 33 12 15 26 20 22 41 47 53 43 44 61 52 61 72 59 48 39 35 24 30 38 38 36 49 46 26 25 38 37 23 20 27 19 19
13 10 10 11 17 26 36 42 45 31 14 14 19 25 24 29 47 56 50 65 68 72 76 75 51 48 44 41 26 34 40 40 47 49 36 26 25 42 47 31 16 14 15
20 15 10 10 13 23 42 49 50 50 36 17 14 15 19 21 26 46 70 80 71 72 74 79 68 54 47 42 32 31 37 41 46 51 37 32 28 97 98 50 39 41 33
22 16 12 11 11 12 31 46 52 52 52 45 27 15 14 14 17 23 37 64 65 65 61 68 59 53 48 40 32 32 40 43 46 50 49 61 73 77 61 59 57 62 71
23 15 12 12 11 12 14 29 48 52 52 54 52 50 44 23 17 16 19 27 39 32 33 45 36 37 39 35 27 28 40 44 61 39 62 96 78 64 54 59 53 74 68
24 15 13 11 10 10 12 12 22 40 54 54 54 54 53 51 44 30 17 19 22 24 28 30 32 31 26 25 29 43 46 44 47 37 48 59 77 64 55 44 42 64 83
22 16 14 14 13 12 11 12 13 18 29 47 53 56 53 54 54 52 34 23 22 24 24 24 25 27 37 53 53 44 41 37 40 54 64 59 63 64 48 40 39 55 89
24 15 28 67 92 99 60 14 16 15 18 22 30 43 51 54 56 62 70 54 46 36 38 45 51 50 50 46 36 34 36 41 63 66 64 60 56 49 40 42 57 81 88
45 49 100 100 100 100 49 18 16 16 18 20 23 30 38 52 87 100 100 100 100 85 65 49 42 38 35 32 33 38 44 51 51 50 48 47 51 58 77 83 84 77 74
46 33 40 83 85 30 24 21 18 19 17 18 31 49 61 65 68 66 63 63 53 48 40 35 33 34 35 37 42 45 46 46 47 46 47 50 51 55 61 65 56 54 47
57 43 34 29 31 28 26 24 22 22 22 20 18 19 21 24 26 27 28 28 29 31 32 36 40 44 46 49 51 53 53 53 55 53 50 51 54 58 57 54 59 53 51
95 79 68 56 45 36 34 31 30 32 34 36 33 30 30 31 32 35 37 38 42 44 40 42 44 47 50 50 51 51 52 55 53 54 57 60 65 65 62 63 63 64 61
100 98 75 57 48 44 39 36 35 34 39 44 50 50 45 43 41 38 37 35 36 39 41 41 43 47 51 54 55 56 57 59 57 58 63 65 68 66 61 65 57 48 43
100 99 87 81 70 58 52 44 38 36 34 35 35 36 42 44 42 43 47 50 54 58 58 58 59 60 64 71 71 71 66 65 61 58 57 58 61 54 50 45 44 44 35
97 85 83 80 83 84 77 60 48 39 34 33 33 34 36 40 45 50 52 52 50 52 57 62 62 64 65 63 59 58 53 52 52 52 55 52 46 44 42 39 42 36 36
88 90 82 76 84 92 88 80 74 63 53 43 37 36 36 40 44 48 49 48 52 59 64 66 64 60 57 55 51 52 53 52 54 47 46 49 48 42 38 39 41 40 40
90 97 100 98 90 87 89 91 81 73 67 61 47 44 44 45 48 51 54 53 51 51 57 60 57 53 50 46 44 44 41 39 41 48 45 42 40 38 39 36 30 32 30

GFSGL_250_rhum_048.txt.gz
RH
33 21 21 22 22 28 26 25 27 24 22 21 20 20 20 20 16 14 17 19 21 22 24 26 29 28 34 40 38 31 19 13 11 12 14 23 32 40 58 72 76 84 86
67 27 21 20 21 26 31 27 23 22 23 23 22 21 21 20 16 18 26 26 25 23 25 31 31 27 22 48 39 39 30 16 12 14 13 21 30 30 41 51 67 69 63
59 42 30 19 22 22 24 26 25 26 23 23 23 22 23 21 16 24 34 32 28 29 36 40 38 32 20 42 39 43 40 32 15 15 15 22 35 27 35 38 59 78 91
53 70 67 46 25 19 22 25 25 26 28 25 23 23 22 23 17 27 32 30 31 36 40 45 32 34 21 31 46 37 44 41 34 15 20 19 33 33 28 30 35 30 22
16 24 44 40 54 44 19 25 26 26 26 25 25 25 24 24 19 22 28 29 32 34 40 47 39 26 26 78 54 34 38 42 43 30 18 20 22 26 22 22 23 22 22
18 15 14 18 54 75 56 29 21 19 25 28 27 27 26 25 26 21 22 25 27 35 37 45 51 29 22 49 50 39 36 36 42 41 34 22 25 21 21 19 24 24 22
18 16 14 16 35 53 48 44 30 33 30 22 29 30 28 29 28 26 24 22 21 26 41 46 51 58 28 21 20 34 39 35 36 42 44 44 29 32 26 26 25 24 24
19 18 15 12 16 29 33 23 28 35 36 39 30 21 30 32 31 36 37 31 24 21 25 46 52 58 62 36 22 16 24 30 38 35 38 47 48 29 34 32 23 30 26
20 22 19 11 11 21 29 29 27 20 17 32 41 34 21 26 41 35 32 37 42 40 34 35 48 56 65 63 48 40 40 36 29 32 34 40 46 49 33 30 38 33 25
20 23 22 18 11 16 26 31 27 32 34 36 23 39 42 26 27 43 49 37 33 35 45 52 54 54 68 73 61 46 42 45 42 33 31 37 43 48 47 37 29 47 65
20 21 23 24 13 10 11 15 24 25 33 39 39 19 15 26 26 23 37 47 45 53 60 48 46 53 64 90 91 80 60 51 47 36 34 36 45 55 57 57 37 78 100
24 23 22 24 18 11 10 11 12 17 27 34 38 41 29 14 15 22 28 28 28 42 54 56 49 49 51 67 91 94 72 57 48 40 30 36 86 76 95 94 71 58 67
27 25 24 24 22 16 12 10 11 16 24 35 40 43 46 45 21 14 15 19 24 25 25 27 33 41 50 64 76 67 54 40 38 35 28 34 88 100 100 78 67 96 74
32 29 24 24 26 23 20 14 11 11 12 26 39 43 43 48 50 42 28 20 17 17 16 14 14 18 26 27 40 43 32 32 30 26 40 87 74 83 48 40 42 51 73
35 32 27 24 26 24 22 15 12 11 12 14 30 41 48 49 50 50 51 51 48 42 40 38 21 19 22 26 29 29 28 28 26 38 72 91 45 43 38 47 59 56 55
37 36 76 42 26 26 23 15 15 16 10 10 10 20 35 42 50 51 52 53 54 56 54 53 42 28 22 25 25 25 25 30 47 54 51 43 37 39 46 56 54 52 53
38 33 64 76 28 26 23 18 14 30 53 33 12 13 18 23 35 46 52 53 55 54 52 54 59 61 45 32 31 44 67 63 50 43 37 33 36 47 49 52 50 47 50
43 99 100 48 28 26 33 99 100 100 100 100 92 20 14 14 16 15 19 28 37 43 50 57 90 100 100 96 94 80 56 42 37 32 36 48 50 49 49 48 45 44 43
68 63 64 44 49 43 64 100 100 100 100 97 100 73 18 16 18 26 30 23 24 34 66 100 99 86 79 68 50 37 32 35 38 46 47 45 45 49 49 47 45 46 46
89 67 58 64 62 71 89 100 100 100 100 100 100 91 37 20 21 19 17 23 34 43 49 52 47 40 32 28 30 36 39 37 39 42 43 44 41 40 41 42 39 40 44
92 60 47 63 48 100 100 100 100 100 100 100 100 92 52 22 21 20 18 18 18 18 19 19 20 23 27 30 32 33 35 36 37 37 36 36 39 42 46 50 50 52 56
60 57 50 50 52 98 99 93 98 100 100 99 90 74 37 24 25 23 23 25 26 26 28 30 30 34 38 40 39 38 39 39 38 38 40 46 50 55 58 61 63 59 51
55 56 67 55 58 52 43 38 66 71 64 63 58 49 32 28 29 27 26 26 27 31 32 35 36 37 39 38 36 34 32 34 40 48 54 58 59 59 61 54 50 49 46
58 64 60 63 80 62 47 43 42 35 33 35 39 40 39 37 33 30 29 30 30 30 31 34 35 36 36 39 39 40 41 44 50 54 54 55 56 55 50 48 43 41 40
71 73 76 76 68 72 78 72 59 49 43 39 39 41 42 40 38 39 39 36 34 33 33 34 36 39 41 44 45 44 45 46 48 54 60 59 55 56 57 48 43 42 43
66 65 68 91 72 79 76 72 66 65 64 63 67 71 68 62 60 58 60 59 52 47 48 48 48 49 51 52 52 48 49 48 47 50 52 55 61 56 48 46 42 44 39